#timestamp,LO_Frequency,Hit,StdDev 
1576436415.3,286046997.4,N
1576436435.1,286046999.6,N
1576436436.0,286046999.6,N
1576436455.8,286047000.5,N
1576436475.7,286046999.9,N
1576436495.5,286047000.4,N
1576436515.3,286047001.0,N
1576436535.2,286046999.7,N
1576436555.0,286047002.5,N
1576436555.9,286047002.5,N
1576436575.8,286046999.7,N
1576436595.6,286046998.2,N
1576436615.4,286046999.5,N
1576436635.3,286046997.0,N
1576436655.1,286046998.8,N
1576436675.9,286047002.4,N
1576436695.7,286047000.9,N
1576436715.5,286047000.4,N
1576436735.4,286046999.1,N
1576436755.2,286047000.1,N
1576436775.0,286047000.9,N
1576436775.9,286047000.9,N
1576436795.8,286047000.9,N
1576436815.6,286047001.1,N
1576436835.5,286046999.5,N
1576436855.3,286046999.4,N
1576436875.1,286047000.6,N
1576436895.9,286046998.5,N
1576436915.7,286047000.7,N
1576436935.5,286046998.3,N
1576436955.4,286046998.4,N
1576436975.2,286046998.5,N
1576436995.1,286046999.2,N
1576436996.0,286046999.2,N
1576437015.8,286046997.5,N
1576437035.6,286046997.1,N
1576437055.5,286046996.1,N
1576437075.3,286046995.4,N
1576437095.2,286046996.9,N
1576437115.9,286046997.7,N
1576437135.7,286046996.2,N
1576437155.6,286046997.4,N
1576437175.4,286046997.3,N
1576437195.2,286046995.0,N
1576437215.1,286046996.9,N
1576437216.0,286046996.9,N
1576437235.8,286046999.0,N
1576437255.7,286046997.8,N
1576437275.5,286046999.0,N
1576437295.3,286046997.3,N
1576437315.2,286046996.3,N
1576437335.0,286046997.4,N
1576437335.9,286046997.4,N
1576437355.8,286046997.2,N
1576437375.6,286046997.4,N
1576437395.4,286046997.0,N
1576437415.3,286046997.1,N
1576437435.1,286046996.7,N
1576437455.8,286046997.0,N
1576437475.7,286046999.5,N
1576437495.5,286047001.0,N
1576437515.4,286046998.7,N
1576437535.2,286046997.1,N
1576437555.0,286046995.6,Y
1576437555.9,286046995.6,P
1576437575.8,286047002.3,N
1576437595.6,286046998.9,N
1576437615.4,286046997.1,N
1576437635.3,286046996.5,N
1576437655.1,286047000.9,N
1576437675.9,286047000.6,N
1576437695.7,286046997.1,N
1576437715.5,286046995.7,N
1576437735.4,286046996.0,N
1576437755.2,286046995.1,N
1576437775.0,286046996.6,N
1576437775.9,286046996.6,N
1576437795.8,286046996.8,N
1576437815.6,286046996.7,N
1576437835.5,286046997.7,N
1576437855.3,286046995.4,N
1576437875.1,286046994.2,N
1576437895.9,286046994.5,N
1576437915.7,286046993.9,N
1576437935.5,286046997.8,N
1576437955.4,286046998.2,N
1576437975.2,286047002.3,N
1576437995.1,286046999.6,N
1576437996.0,286046999.6,N
1576438015.8,286046998.6,N
1576438035.6,286047002.5,N
1576438055.5,286046998.3,N
1576438075.3,286046998.8,N
1576438095.1,286046997.2,N
1576438115.9,286046997.3,N
1576438135.7,286046999.6,N
1576438155.6,286046996.7,N
1576438175.4,286046995.3,N
1576438195.2,286046993.4,Y
1576438215.1,286046996.9,P
1576438216.0,286046996.9,P
1576438235.8,286046997.6,P
1576438255.7,286046997.1,Y
1576438275.5,286046998.5,P
1576438295.3,286047000.4,N
1576438315.2,286046998.1,N
1576438335.0,286047000.8,N
1576438335.9,286047000.8,N
1576438385.8,286046999.9,E
1576438395.7,286047000.3,N
1576438415.5,286047000.5,P
1576438435.4,286047002.8,P
1576438455.2,286046999.7,N
1576438475.1,286047001.1,N
1576438476.0,286047001.1,N
1576438495.8,286046999.7,N
1576438515.6,286046998.6,N
1576438535.5,286046998.6,N
1576438555.3,286046998.1,N
1576438575.1,286047001.2,N
1576438595.9,286046998.3,N
1576438615.7,286046998.2,N
1576438635.6,286046998.6,N
1576438655.4,286047000.7,N
1576438675.2,286047000.2,N
1576438695.1,286047001.9,N
1576438696.0,286047001.9,N
1576438715.8,286047002.2,N
1576438735.7,286047002.8,N
1576438755.5,286047000.8,N
1576438775.3,286047000.5,N
1576438795.2,286047000.8,N
1576438815.9,286047000.8,N
1576438835.7,286046998.4,N
1576438855.6,286046999.1,N
1576438875.4,286047000.4,N
1576438895.3,286047002.6,N
1576438915.1,286047004.1,N
1576438916.0,286047004.1,N
1576438935.8,286047001.7,N
1576438955.7,286047002.6,N
1576438975.5,286047000.2,N
1576438995.3,286047000.0,N
1576439015.2,286046999.7,N
1576439035.0,286047003.6,N
1576439035.9,286047003.6,N
1576439055.8,286047002.4,N
1576439075.6,286047000.3,N
1576439095.4,286047001.4,N
1576439115.3,286047004.3,N
1576439135.1,286047000.4,N
1576439155.9,286047000.3,N
1576439175.7,286047000.1,N
1576439195.5,286047000.6,N
1576439215.4,286046998.3,N
1576439235.2,286046998.2,N
1576439255.0,286046999.8,N
1576439256.0,286046999.8,N
1576439275.8,286047001.4,N
1576439295.6,286047003.3,N
1576439315.5,286047006.8,Y
1576439335.3,286047004.1,P
1576439355.1,286047001.6,N
1576439375.9,286047003.4,N
1576439395.7,286047005.4,Y
1576439415.6,286047000.5,P
1576439435.4,286046997.1,N
1576439455.2,286046997.4,N
1576439475.1,286046997.5,N
1576439476.0,286046997.5,N
1576439495.8,286046997.5,N
1576439515.7,286046995.4,N
1576439535.5,286046999.2,N
1576439555.3,286046998.8,N
1576439575.2,286046996.5,N
1576439595.9,286046995.5,N
1576439615.7,286046995.2,N
1576439635.6,286046993.3,Y
1576439655.4,286046997.2,P
1576439675.3,286046999.4,N
1576439695.1,286046998.3,N
1576439696.0,286046998.3,N
1576439715.8,286046998.1,N
1576439735.7,286046996.5,Y
1576439755.5,286046997.0,P
1576439775.4,286046995.0,P
1576439795.2,286046995.2,P
1576439815.0,286046994.1,Y
1576439815.9,286046994.1,P
1576439835.8,286046998.6,N
1576439855.6,286046999.3,N
1576439875.4,286047000.0,N
1576439895.3,286046999.9,N
1576439915.1,286047001.7,N
1576439935.9,286047011.9,Y
1576439955.7,286047003.2,P
1576439975.5,286047001.3,N
1576439995.4,286047001.8,N
